Regional Weather Roundup
Issued by NWS

Home | Current Version | Previous Version | Text Only | Print | Product List | Glossary Off
Versions: 1 2 3 4 5 6 7 8 9 10 11 12 13 14 15 16 17 18 19 20 21 22 23 24 25 26 27 28 29 30 31 32 33 34 35 36 37 38 39 40 41 42 43 44 45 46 47 48 49 50

000
ASUS45 KABQ 280110
RWRNM
WEATHER ROUNDUP FOR NEW MEXICO
NATIONAL WEATHER SERVICE ALBUQUERQUE NM
700 PM MDT MON APR 27 2015

NOTE: "FAIR" MEANS FEW OR NO CLOUDS BELOW 12,000 FEET AGL WITH NO
       SIGNIFICANT WEATHER OR OBSTRUCTIONS TO VISION.

      THIS PRODUCT IS RELEASED AS TWO VERSIONS.  ONE VERSION NEAR
      THE TOP OF THE HOUR CONTAINING PRELIMINARY DATA FROM ALBUQUERQUE
      AND OTHER STATIONS.  A FINAL VERSION WITH ADDITIONAL DATA IS
      ISSUED ABOUT 10 MINUTES AFTER THE HOUR.

NMZ501-503-504-510>518-280200-
NORTHWEST PLATEAU/NORTHCENTRAL MOUNTAINS

CITY           SKY/WX    TMP DP  RH WIND       PRES   REMARKS
FARMINGTON     CLOUDY    58  36  43 E23G35    30.04R
LOS ALAMOS     MOCLDY    53  31  43 CALM      30.14R
SANTA FE       MOCLDY    52  33  48 S15       30.09R
TAOS           MOCLDY    48  27  43 SE16      30.14R
ANGEL FIRE     CLOUDY    34  27  75 NE21        N/A  WCI  22

$$
NMZ402-403-502-505>509-280200-
WESTCENTRAL MOUNTAINS/SOUTHWEST MOUNTAINS

CITY           SKY/WX    TMP DP  RH WIND       PRES   REMARKS
GALLUP         SUNNY     60  29  30 NE7       30.09R
GRANTS         CLOUDY    50  43  74 SE7       30.14R
SILVER CITY    LGT RAIN  54  45  71 NE12      30.07R

$$
NMZ407-409-411-412-280200-
SOUTHERN DESERTS

CITY           SKY/WX    TMP DP  RH WIND       PRES   REMARKS
LORDSBURG      FAIR      68  32  26 SE7       29.99R
DEMING         PTCLDY    63  35  35 NE17G29   30.02R
LAS CRUCES     MOCLDY    60  32  35 N14G22    30.05R
HOLLOMAN AFB   CLOUDY    60  34  37 N21       30.03R
ALAMOGORDO     CLOUDY    59  32  36 N22       30.04R
T OR C         MOCLDY    59  34  39 NE21G26   30.07R

$$
NMZ519>523-280200-
CENTRAL VALLEYS/CENTRAL HIGHLANDS

CITY           SKY/WX    TMP DP  RH WIND       PRES   REMARKS
ALBUQUERQUE    CLOUDY    57  36  45 SE17      30.08R
DOUBLE EAGLE   MOCLDY    54  41  62 SW14      30.10R
MORIARTY ARPT  FAIR      47  30  50 E15G30    30.14R
CLINES CORNERS MOCLDY    42  32  67 E22G29    30.14R
BELEN          MOCLDY    58  40  52 S15       30.09R
SOCORRO        CLOUDY    57  40  52 E5        30.10R

$$
NMZ524>526-539-540-280200-
SOUTHCENTRAL MOUNTAINS

CITY           SKY/WX    TMP DP  RH WIND       PRES   REMARKS
RUIDOSO        CLOUDY    37  32  81 N3        30.19R

$$
NMZ527>531-280200-
NORTHEAST HIGHLANDS/NORTHEAST PLAINS

CITY           SKY/WX    TMP DP  RH WIND       PRES   REMARKS
LAS VEGAS      CLOUDY    40  30  67 NE28G38   30.17R WCI  29
RATON          CLOUDY    43  31  62 N23G30    30.18R
CLAYTON        CLOUDY    42  35  76 N17       30.14S

$$
NMZ532>537-280200-
EASTCENTRAL PLAINS

CITY           SKY/WX    TMP DP  RH WIND       PRES   REMARKS
TUCUMCARI      CLOUDY    42  38  85 NE18      30.15R
CANNON AFB     LGT RAIN  39  36  89 N26G41    30.08R WCI  28
CLOVIS AIRPORT CLOUDY    39  36  87 N30G36    30.09R WCI  27

$$
NMZ028-029-538-280200-
SOUTHEAST PLAINS

CITY           SKY/WX    TMP DP  RH WIND       PRES   REMARKS
ROSWELL        CLOUDY    49  38  65 N17       30.13R
ARTESIA        CLOUDY    50  37  62 N22G30    30.14R
CARLSBAD       CLOUDY    52  34  50 N26G40    30.10R
HOBBS          CLOUDY    43  37  81 N32       30.06R


$$



USA.gov is the U.S. government's official web portal to all federal, state and local government web resources and services.